Location: Bern�tre
(50.1974°N, 2.0915°E)
Time: 06:19:10
(UTC+00:00)

Cosmos 1844 Rocket - Pass Details

Date: 18 September 2020
Orbit: 823 x 846 km, 71.0° (Epoch: 22 October)

Event Time Altitude Azimuth Distance (km) Brightness Sun altitude
Rises 19:39:08 0° 187° (S) 3,346 5.6 -16.6°
Reaches altitude 10° 19:41:37 10° 181° (S) 2,419 4.9 -16.9°
Maximum altitude 19:46:53 46° 110° (ESE) 1,100 2.8 -17.7°
Drops below altitude 10° 19:52:11 10° 39° (NE) 2,444 5.0 -18.5°
Sets 19:54:43 0° 33° (NNE) 3,386 5.8 -18.8°
